Location: Hackbridge
(51.3833°N, 0.1500°W)
Time: 18:17:05
(UTC+00:00)

Lacrosse 5 - Pass Details

Date: 13 October 2019
Orbit: 715 x 724 km, 57.0° (Epoch: 12 November)

Event Time Altitude Azimuth Distance (km) Brightness Sun altitude
Rises 18:28:41 0° 289° (WNW) 3,124 6.8 -12.7°
Reaches altitude 10° 18:31:09 10° 295° (WNW) 2,203 5.6 -13.0°
Maximum altitude 18:36:03 47° 9° (N) 949 2.4 -13.8°
Enters shadow 18:39:15 20° 75° (ENE) 1,612 3.1 -14.3°
